星链-4740 (STARLINK-4740 )

导读

STARLINK-4740是美国太空探索技术公司(SpaceX)发射的星链低轨宽带通信卫星,于2022年9月19日发射升空,属于星链互联网卫星星座中的一员。它为全球偏远地区网络覆盖盲区及网络基础设施薄弱区域提供高速互联网服务,支撑星链全球卫星互联网组网建设,服务于民用通信、军事应用等多领域。

Basic Information
目录编号:
53871
目录名称:
STARLINK-4740
国际标识:
2022-114BF
轨道中心:
EARTH
卫星名称:
星链-4740
卫星全名:
星链-4740 (STARLINK-4740 )
卫星状态:
在轨 (已飞行1446 天)
发射日期:
2022-09-19 UTC
国别 :
美国 (US)
星等 :
--
Orbit Information
数据来源 国际轨道数据
星历时间: 2026-09-04T02:50:48+0800
9小时前
查看轨道信息
半长轴: 6840.91km
偏心率: 0.0001322
轨道倾角: 53.161°
近地点辐角 98.509°
升交点赤经 171.785°
平近点角 261.606°
近地点: 461.868km
远地点: 463.678km
周期: 93.849分钟
每日圈数: 15.343767
Detailed Information
固有亮度:
5
最大亮度:
2.5
卫星平台:
Starlink v1.5
覆盖范围:
全球
运营商:
太空探索技术公司
运营商所在国:
美国
制造商(研发单位):
太空探索技术公司
制造商所在国:
美国
使用方式:
暂无
Satellite Introduction
星链(Starlink)计划是由太空探索技术公司(SpaceX)提出的一个巨型低轨卫星互联网星座项目,计划在2019年至2024年间在太空搭建由约1.2万颗卫星组成的“星链”网络,其中1584颗将部署在地球上空550千米处的近地轨道,并从2020年开始工作。该卫星仍在工作。
2D Orbit Map
3D Orbit Map
Orbit Altitude Analysis Chart
Orbit Inclination Analysis Chart
Orbit Comprehensive Analysis Chart
View Comprehensive Chart
Conjunction Data List
Event ID Objects TCA Miss Dist (km) Collision Risk Probability Collision Risk Index (CRI) Action
CDM_260905-043005-387106-448121
2026-09-05T
04:30:52+0000
0.579 km
远距离
1.271401E-4 高风险 0.77
CDM_260904-083305-387106-059321
2026-09-04T
08:33:25+0000
0.475 km
远距离
8.401618E-5 中风险 0.73
CDM_260904-151305-387106-448121
2026-09-04T
15:13:39+0000
0.740 km
远距离
6.341204E-5 中风险 0.71
CDM_260905-110805-387106-564921
2026-09-05T
11:08:15+0000
1.479 km
极远距离
2.429856E-6 低风险 0.43
CDM_260904-165505-387106-984621
2026-09-04T
16:55:03+0000
2.000 km
极远距离
2.334081E-6 低风险 0.42
CDM_260904-122705-387106-059321
2026-09-04T
12:27:54+0000
1.461 km
极远距离
2.332688E-6 低风险 0.42
CDM_260904-105405-387106-059321
2026-09-04T
10:54:06+0000
1.474 km
极远距离
2.268168E-6 低风险 0.42
CDM_260902-100005-210805-387122
2026-09-02T
10:00:11+0000
2.744 km
极远距离
1.348998E-6 低风险 0.38
CDM_260905-091805-254805-387121
2026-09-05T
09:18:19+0000
2.668 km
极远距离
1.334854E-6 低风险 0.38
CDM_260904-222305-387106-984621
2026-09-04T
22:23:18+0000
2.748 km
极远距离
1.247169E-6 低风险 0.37